Weather History for KGPT - September, 2012

Change the Weather History Date:

Saturday, September 1, 2012

  Actual Average Record
Temperature  
Mean Temperature 82 °F -  
Max Temperature 87 °F 89 °F 97 °F (1964)
Min Temperature 78 °F 72 °F 33 °F (1996)
Cooling Degree Days 17    
Growing Degree Days 32 (Base 50)    
Moisture  
Dew Point 77 °F    
Average Humidity 85    
Maximum Humidity 94    
Minimum Humidity 70    
Precipitation  
Precipitation 0.00 in - - ()
Sea Level Pressure  
Sea Level Pressure 30.12 in    
Wind  
Wind Speed 4 mph (South)    
Max Wind Speed 12 mph    
Max Gust Speed -    
Visibility 9 miles    
Events      
Averages and records for this station are not official NWS values.
T = Trace of Precipitation, MM = Missing Value Source: NWS Daily Summary

Daily Weather History Graph

Daily Weather History Graph

Search for Another Location

Airport or City:

Trip Planner

Search our weather history database for the weather conditions in past years. The results will help you decide how hot, cold, wet, or windy it might be!

Date:

Astronomy

Sep. 01, 2012 Rise Set
Actual Time 6:33 AM CDT 7:18 PM CDT
Civil Twilight 6:08 AM CDT 7:42 PM CDT
Nautical Twilight 5:39 AM CDT 8:11 PM CDT
Astronomical Twilight 5:10 AM CDT 8:40 PM CDT
Moon 7:46 PM CDT (9/1) 7:31 AM CDT (9/1)
Length of Visible Light 13h 34m
Length of Day
12h 45m
Full, 99% of the Moon is Illuminated
Sep 1
Full
Sep 8
Last Quarter
Sep 15
New
Sep 22
First Quarter
Sep 29
Full

Hourly Weather History & Observations

Time (CDT) Temp. Heat Index Dew Point Humidity Pressure Visibility Wind Dir Wind Speed Gust Speed Precip Events Conditions
12:53 AM 81.0 °F 88.6 °F 78.1 °F 91% 30.12 in 10.0 mi South 6.9 mph - N/A   Clear
1:53 AM 80.1 °F 86.4 °F 78.1 °F 94% 30.11 in 10.0 mi South 4.6 mph - N/A   Clear
2:53 AM 80.1 °F 86.4 °F 78.1 °F 94% 30.10 in 9.0 mi Calm Calm - N/A   Clear
3:53 AM 79.0 °F - 75.9 °F 90% 30.10 in 7.0 mi Calm Calm - N/A   Clear
4:53 AM 79.0 °F - 77.0 °F 94% 30.09 in 7.0 mi Calm Calm - N/A   Clear
5:53 AM 79.0 °F - 77.0 °F 94% 30.11 in 7.0 mi Calm Calm - N/A   Clear
6:25 AM 78.8 °F - 75.2 °F 89% 30.12 in 7.0 mi Calm Calm - N/A   Scattered Clouds
6:37 AM 78.8 °F - 77.0 °F 94% 30.12 in 5.0 mi Calm Calm - N/A   Mostly Cloudy
6:53 AM 78.1 °F - 75.9 °F 93% 30.13 in 5.0 mi Calm Calm - N/A   Mostly Cloudy
7:13 AM 78.8 °F - 77.0 °F 94% 30.13 in 6.0 mi Calm Calm - N/A   Partly Cloudy
7:53 AM 81.0 °F 88.6 °F 78.1 °F 91% 30.15 in 8.0 mi SSE 4.6 mph - N/A   Mostly Cloudy
8:22 AM 80.6 °F 88.1 °F 78.8 °F 94% 30.15 in 10.0 mi SSE 5.8 mph - N/A   Mostly Cloudy
8:53 AM 82.0 °F 90.2 °F 77.0 °F 85% 30.15 in 10.0 mi South 5.8 mph - N/A   Mostly Cloudy
9:03 AM 82.4 °F 90.9 °F 77.0 °F 84% 30.15 in 10.0 mi South 4.6 mph - N/A   Mostly Cloudy
9:53 AM 82.9 °F 90.8 °F 75.9 °F 79% 30.17 in 10.0 mi SSW 4.6 mph - N/A   Mostly Cloudy
10:53 AM 84.0 °F 92.6 °F 75.9 °F 76% 30.17 in 10.0 mi SSW 4.6 mph - N/A   Mostly Cloudy
11:53 AM 84.0 °F 92.6 °F 75.9 °F 76% 30.16 in 10.0 mi South 5.8 mph - N/A   Mostly Cloudy
12:53 PM 86.0 °F 96.9 °F 77.0 °F 74% 30.15 in 10.0 mi SSE 9.2 mph - N/A   Scattered Clouds
1:53 PM 84.9 °F 94.1 °F 75.9 °F 74% 30.12 in 10.0 mi South 8.1 mph - N/A   Partly Cloudy
2:53 PM 86.0 °F 96.0 °F 75.9 °F 72% 30.09 in 10.0 mi SSE 10.4 mph - N/A   Partly Cloudy
3:53 PM 86.0 °F 96.0 °F 75.9 °F 72% 30.08 in 10.0 mi SSE 11.5 mph - N/A   Clear
4:53 PM 86.0 °F 95.1 °F 75.0 °F 70% 30.08 in 10.0 mi South 8.1 mph - N/A   Clear
5:53 PM 84.9 °F 94.1 °F 75.9 °F 74% 30.09 in 10.0 mi SSE 9.2 mph - N/A   Clear
6:53 PM 82.9 °F 90.8 °F 75.9 °F 79% 30.08 in 10.0 mi South 5.8 mph - N/A   Clear
7:53 PM 82.0 °F 89.4 °F 75.9 °F 82% 30.07 in 10.0 mi South 4.6 mph - N/A   Partly Cloudy
8:53 PM 82.0 °F 90.2 °F 77.0 °F 85% 30.09 in 10.0 mi South 5.8 mph - N/A   Clear
9:53 PM 82.0 °F 90.2 °F 77.0 °F 85% 30.09 in 10.0 mi South 3.5 mph - N/A   Clear
10:53 PM 82.0 °F 90.2 °F 77.0 °F 85% - 10.0 mi Variable 4.6 mph - N/A   Clear
11:53 PM 81.0 °F 87.9 °F 77.0 °F 88% - 10.0 mi South 3.5 mph - N/A   Scattered Clouds